When you browse on this site, cookies collect data to enhance your experience and personalize the content and advertising you see.
Visit our Privacy Policy to learn more. By continuing to use the site, you agree to this use of cookies and data.
EN

Hourly Weather Marinka

Today, 11 August, Tuesday

Time Temperature Precipitation Wind Pressure Humidity
00:00 +24°C° 0 mm 1 mps 746 mmHg 53%
01:00 +23°C° 0 mm 1 mps 745 mmHg 55%
02:00 +23°C° 0 mm 1 mps 745 mmHg 57%
03:00 +22°C° 0 mm 1 mps 745 mmHg 61%
04:00 +22°C° 0 mm 1 mps 745 mmHg 62%
05:00 +22°C° 0 mm 1 mps 745 mmHg 62%
06:00 +22°C° 0 mm 1 mps 745 mmHg 63%
07:00 +24°C° 0 mm 1 mps 745 mmHg 58%
08:00 +26°C° 0 mm 1 mps 745 mmHg 53%
09:00 +27°C° 0 mm 1 mps 746 mmHg 47%
10:00 +28°C° 0 mm 2 mps 746 mmHg 43%
11:00 +30°C° 0 mm 2 mps 746 mmHg 39%
12:00 +31°C° 0 mm 2 mps 746 mmHg 35%
13:00 +30°C° 0.1 mm 2 mps 746 mmHg 37%
14:00 +30°C° 0.1 mm 2 mps 745 mmHg 39%
15:00 +29°C° 0.1 mm 2 mps 745 mmHg 40%
16:00 +28°C° 0.4 mm 3 mps 745 mmHg 45%
17:00 +27°C° 0.4 mm 3 mps 745 mmHg 49%
18:00 +26°C° 0.4 mm 3 mps 745 mmHg 54%
19:00 +25°C° 1.5 mm 3 mps 745 mmHg 60%
20:00 +24°C° 1.5 mm 3 mps 745 mmHg 67%
21:00 +21°C° 1.5 mm 3 mps 745 mmHg 73%
22:00 +21°C° 0.9 mm 2 mps 745 mmHg 75%
23:00 +22°C° 0.9 mm 1 mps 745 mmHg 77%

Tomorrow, 12 August, Wednesday

Time Temperature Precipitation Wind Pressure Humidity
00:00 +21°C° 0.9 mm 1 mps 745 mmHg 79%
01:00 +21°C° 0 mm 1 mps 745 mmHg 80%
02:00 +21°C° 0 mm 1 mps 744 mmHg 82%
03:00 +19°C° 0 mm 2 mps 744 mmHg 83%
04:00 +19°C° 0 mm 2 mps 744 mmHg 84%
05:00 +19°C° 0 mm 2 mps 744 mmHg 84%
06:00 +20°C° 0 mm 1 mps 744 mmHg 85%
07:00 +21°C° 0 mm 2 mps 744 mmHg 76%
08:00 +23°C° 0 mm 2 mps 744 mmHg 68%
09:00 +25°C° 0 mm 2 mps 744 mmHg 59%
10:00 +27°C° 0 mm 3 mps 744 mmHg 54%
11:00 +28°C° 0 mm 3 mps 744 mmHg 49%
12:00 +29°C° 0 mm 4 mps 744 mmHg 44%
13:00 +29°C° 0 mm 4 mps 744 mmHg 43%
14:00 +30°C° 0 mm 4 mps 744 mmHg 41%
15:00 +30°C° 0 mm 4 mps 744 mmHg 40%
16:00 +29°C° 0 mm 5 mps 744 mmHg 40%
17:00 +29°C° 0 mm 5 mps 744 mmHg 40%
18:00 +29°C° 0 mm 5 mps 744 mmHg 40%
19:00 +27°C° 0 mm 5 mps 744 mmHg 47%
20:00 +25°C° 0 mm 5 mps 745 mmHg 54%
21:00 +22°C° 0 mm 5 mps 745 mmHg 60%
22:00 +21°C° 0 mm 4 mps 745 mmHg 62%
23:00 +20°C° 0 mm 4 mps 745 mmHg 64%

Day after tomorrow, 13 August, Thursday

Time Temperature Precipitation Wind Pressure Humidity
00:00 +19°C° 0 mm 3 mps 745 mmHg 65%
01:00 +18°C° 0 mm 3 mps 745 mmHg 66%
02:00 +18°C° 0 mm 3 mps 745 mmHg 67%
03:00 +17°C° 0 mm 3 mps 745 mmHg 68%
04:00 +16°C° 0 mm 3 mps 746 mmHg 70%
05:00 +16°C° 0 mm 3 mps 746 mmHg 71%
06:00 +14°C° 0 mm 3 mps 746 mmHg 73%
07:00 +17°C° 0 mm 3 mps 746 mmHg 66%
08:00 +18°C° 0 mm 3 mps 746 mmHg 60%
09:00 +20°C° 0 mm 4 mps 746 mmHg 53%
10:00 +21°C° 0 mm 4 mps 746 mmHg 49%
11:00 +22°C° 0 mm 4 mps 746 mmHg 44%
12:00 +25°C° 0 mm 4 mps 746 mmHg 40%
13:00 +25°C° 0 mm 4 mps 746 mmHg 38%
14:00 +26°C° 0 mm 5 mps 746 mmHg 37%
15:00 +26°C° 0 mm 5 mps 746 mmHg 35%
16:00 +26°C° 0 mm 5 mps 746 mmHg 37%
17:00 +25°C° 0 mm 5 mps 746 mmHg 38%
18:00 +25°C° 0 mm 5 mps 746 mmHg 40%
19:00 +22°C° 0 mm 4 mps 746 mmHg 43%
20:00 +21°C° 0 mm 4 mps 746 mmHg 46%
21:00 +19°C° 0 mm 3 mps 746 mmHg 49%
22:00 +19°C° 0 mm 3 mps 746 mmHg 52%
23:00 +18°C° 0 mm 2 mps 746 mmHg 55%

14 August, Friday

Time Temperature Precipitation Wind Pressure Humidity
00:00 +17°C° 0 mm 2 mps 746 mmHg 57%
01:00 +17°C° 0 mm 2 mps 746 mmHg 60%
02:00 +16°C° 0 mm 2 mps 746 mmHg 62%
03:00 +16°C° 0 mm 2 mps 746 mmHg 64%
04:00 +15°C° 0 mm 2 mps 746 mmHg 66%
05:00 +15°C° 0 mm 2 mps 746 mmHg 68%
06:00 +15°C° 0 mm 2 mps 746 mmHg 70%
07:00 +17°C° 0 mm 2 mps 746 mmHg 64%
08:00 +18°C° 0 mm 2 mps 746 mmHg 59%
09:00 +20°C° 0 mm 2 mps 746 mmHg 53%
10:00 +21°C° 0 mm 3 mps 747 mmHg 49%
11:00 +22°C° 0 mm 3 mps 747 mmHg 45%
12:00 +24°C° 0 mm 3 mps 747 mmHg 41%
13:00 +24°C° 0 mm 3 mps 746 mmHg 41%
14:00 +23°C° 0 mm 4 mps 746 mmHg 41%
15:00 +23°C° 0 mm 4 mps 746 mmHg 42%
16:00 +24°C° 0 mm 3 mps 746 mmHg 42%
17:00 +22°C° 0 mm 3 mps 746 mmHg 42%
18:00 +23°C° 0 mm 2 mps 746 mmHg 42%
19:00 +21°C° 0 mm 2 mps 746 mmHg 46%
20:00 +20°C° 0 mm 2 mps 747 mmHg 49%
21:00 +19°C° 0 mm 2 mps 747 mmHg 52%
22:00 +18°C° 0 mm 2 mps 747 mmHg 56%
23:00 +17°C° 0 mm 2 mps 747 mmHg 59%

15 August, Saturday

Time Temperature Precipitation Wind Pressure Humidity
00:00 +16°C° 0 mm 2 mps 747 mmHg 63%
01:00 +16°C° 0 mm 3 mps 747 mmHg 64%
02:00 +16°C° 0 mm 3 mps 747 mmHg 64%
03:00 +14°C° 0 mm 3 mps 747 mmHg 65%
04:00 +14°C° 0 mm 3 mps 747 mmHg 64%
05:00 +14°C° 0 mm 3 mps 747 mmHg 63%
06:00 +13°C° 0 mm 3 mps 747 mmHg 63%
07:00 +16°C° 0 mm 3 mps 748 mmHg 57%
08:00 +17°C° 0 mm 4 mps 748 mmHg 51%
09:00 +19°C° 0 mm 4 mps 748 mmHg 45%
10:00 +20°C° 0 mm 4 mps 748 mmHg 41%
11:00 +21°C° 0 mm 4 mps 748 mmHg 37%
12:00 +22°C° 0 mm 4 mps 748 mmHg 34%
13:00 +23°C° 0 mm 4 mps 748 mmHg 33%
14:00 +23°C° 0 mm 4 mps 748 mmHg 33%
15:00 +23°C° 0 mm 4 mps 748 mmHg 32%
16:00 +23°C° 0 mm 4 mps 748 mmHg 34%
17:00 +22°C° 0 mm 5 mps 748 mmHg 37%
18:00 +21°C° 0 mm 5 mps 748 mmHg 39%
19:00 +20°C° 0 mm 4 mps 748 mmHg 43%
20:00 +18°C° 0 mm 3 mps 748 mmHg 46%
21:00 +17°C° 0 mm 2 mps 748 mmHg 50%
22:00 +16°C° 0 mm 2 mps 748 mmHg 51%
23:00 +16°C° 0 mm 2 mps 748 mmHg 53%

16 August, Sunday

Time Temperature Precipitation Wind Pressure Humidity
00:00 +15°C° 0 mm 2 mps 748 mmHg 55%
01:00 +15°C° 0 mm 2 mps 748 mmHg 56%
02:00 +14°C° 0 mm 2 mps 748 mmHg 57%
03:00 +14°C° 0 mm 2 mps 748 mmHg 59%
04:00 +14°C° 0 mm 2 mps 748 mmHg 60%
05:00 +14°C° 0 mm 2 mps 748 mmHg 60%
06:00 +14°C° 0 mm 2 mps 748 mmHg 61%
07:00 +16°C° 0 mm 2 mps 748 mmHg 56%
08:00 +18°C° 0 mm 2 mps 748 mmHg 52%
09:00 +19°C° 0 mm 2 mps 748 mmHg 48%
10:00 +21°C° 0 mm 3 mps 748 mmHg 44%
11:00 +22°C° 0 mm 3 mps 748 mmHg 41%
12:00 +23°C° 0 mm 4 mps 748 mmHg 37%
13:00 +25°C° 0 mm 4 mps 748 mmHg 37%
14:00 +25°C° 0 mm 4 mps 748 mmHg 36%
15:00 +25°C° 0 mm 4 mps 748 mmHg 36%
16:00 +25°C° 0 mm 4 mps 747 mmHg 37%
17:00 +23°C° 0 mm 4 mps 747 mmHg 38%
18:00 +23°C° 0 mm 4 mps 747 mmHg 40%
19:00 +22°C° 0 mm 4 mps 747 mmHg 44%
20:00 +20°C° 0 mm 3 mps 747 mmHg 48%
21:00 +19°C° 0 mm 3 mps 747 mmHg 52%
22:00 +18°C° 0 mm 2 mps 747 mmHg 54%
23:00 +18°C° 0 mm 2 mps 747 mmHg 56%
Show more